FW4143 Weather Reports


Display with metric or nautical units.
time (UTC)temp
F
wind
direction
speed
MPH
gust
MPH
rain 1hr
in
rain 24hr
in
rain mn
in
humidity
%
barometer
mb
20260504195505 81 38 8.0 15.0 0.00 0.00 0.00 55 1011.7
20260504195404 81 37 8.0 15.0 0.00 0.00 0.00 55 1011.8
20260504195305 81 38 8.0 15.0 0.00 0.00 0.00 54 1011.8
20260504195204 81 42 8.0 16.0 0.00 0.00 0.00 55 1012.0
20260504195105 81 44 8.0 16.0 0.00 0.00 0.00 55 1012.0
20260504195005 81 48 9.0 17.0 0.00 0.00 0.00 55 1012.0
20260504194905 81 49 9.0 17.0 0.00 0.00 0.00 55 1011.9
20260504194804 81 49 9.0 17.0 0.00 0.00 0.00 55 1011.9
20260504194726 81 49 10.0 17.0 0.00 0.00 0.00 55 1011.9
20260504194605 81 47 10.0 17.0 0.00 0.00 0.00 55 1011.9
20260504194504 81 47 10.0 18.0 0.00 0.00 0.00 55 1011.9
20260504194405 81 47 11.0 18.0 0.00 0.00 0.00 55 1012.0
20260504194305 81 47 11.0 18.0 0.00 0.00 0.00 54 1012.0
20260504194205 81 45 11.0 18.0 0.00 0.00 0.00 55 1012.0
20260504194105 81 44 11.0 20.0 0.00 0.00 0.00 55 1012.0
20260504194004 81 43 11.0 20.0 0.00 0.00 0.00 55 1012.0
20260504193905 81 41 11.0 20.0 0.00 0.00 0.00 55 1012.0
20260504193805 81 41 11.0 20.0 0.00 0.00 0.00 55 1011.9
20260504193726 81 41 11.0 20.0 0.00 0.00 0.00 55 1012.0
20260504193626 81 42 10.0 20.0 0.00 0.00 0.00 55 1012.0
20260504193505 81 41 10.0 20.0 0.00 0.00 0.00 54 1012.1
20260504193404 81 42 10.0 20.0 0.00 0.00 0.00 55 1012.1
20260504193305 81 44 9.0 20.0 0.00 0.00 0.00 55 1012.1
20260504193205 81 44 9.0 20.0 0.00 0.00 0.00 55 1012.1
20260504193126 81 44 9.0 17.0 0.00 0.00 0.00 55 1012.2
20260504193004 81 43 9.0 17.0 0.00 0.00 0.00 55 1012.3
20260504192905 80 43 10.0 19.0 0.00 0.00 0.00 55 1012.3
20260504192804 80 42 9.0 19.0 0.00 0.00 0.00 55 1012.2
20260504192704 80 42 10.0 19.0 0.00 0.00 0.00 55 1012.2
20260504192604 80 43 9.0 19.0 0.00 0.00 0.00 55 1012.3
20260504192504 80 41 9.0 19.0 0.00 0.00 0.00 55 1012.2
20260504192405 80 41 9.0 19.0 0.00 0.00 0.00 55 1012.2
20260504192305 80 40 9.0 19.0 0.00 0.00 0.00 55 1012.2
20260504192226 80 40 9.0 19.0 0.00 0.00 0.00 55 1012.2
20260504192105 80 38 9.0 19.0 0.00 0.00 0.00 55 1012.3
20260504192005 80 34 9.0 19.0 0.00 0.00 0.00 55 1012.3
20260504191904 80 35 9.0 19.0 0.00 0.00 0.00 55 1012.3
20260504191804 80 36 9.0 17.0 0.00 0.00 0.00 55 1012.3
20260504191704 80 35 9.0 17.0 0.00 0.00 0.00 55 1012.4
20260504191605 80 33 9.0 17.0 0.00 0.00 0.00 55 1012.4
20260504191505 80 34 10.0 17.0 0.00 0.00 0.00 55 1012.4
20260504191404 80 34 10.0 17.0 0.00 0.00 0.00 55 1012.4
20260504191305 80 33 10.0 17.0 0.00 0.00 0.00 55 1012.5
20260504191204 80 33 10.0 17.0 0.00 0.00 0.00 55 1012.5
20260504191105 80 35 10.0 18.0 0.00 0.00 0.00 56 1012.4
20260504191004 80 39 10.0 18.0 0.00 0.00 0.00 55 1012.5
20260504190904 79 39 10.0 18.0 0.00 0.00 0.00 55 1012.5
20260504190826 79 38 10.0 18.0 0.00 0.00 0.00 55 1012.6
20260504190725 80 39 10.0 18.0 0.00 0.00 0.00 55 1012.5
20260504190605 80 39 10.0 18.0 0.00 0.00 0.00 55 1012.6
20260504190505 80 38 10.0 18.0 0.00 0.00 0.00 55 1012.6
20260504190405 79 36 10.0 18.0 0.00 0.00 0.00 56 1012.7
20260504190304 79 36 10.0 18.0 0.00 0.00 0.00 56 1012.5
20260504190226 79 35 10.0 18.0 0.00 0.00 0.00 55 1012.5
20260504190105 79 33 9.0 17.0 0.00 0.00 0.00 55 1012.5
20260504190005 80 31 9.0 17.0 0.00 0.00 0.00 55 1012.4
20260504185904 80 31 9.0 17.0 0.00 0.00 0.00 55 1012.5
20260504185805 80 32 9.0 17.0 0.00 0.00 0.00 55 1012.5
20260504185705 80 32 9.0 17.0 0.00 0.00 0.00 54 1012.6
20260504185604 80 32 9.0 20.0 0.00 0.00 0.00 54 1012.7
20260504185526 80 32 8.0 20.0 0.00 0.00 0.00 55 1012.6
20260504185426 80 31 8.0 20.0 0.00 0.00 0.00 55 1012.5
20260504185305 79 33 8.0 20.0 0.00 0.00 0.00 55 1012.6
20260504185205 79 33 8.0 20.0 0.00 0.00 0.00 55 1012.6
20260504185125 79 35 8.0 20.0 0.00 0.00 0.00 55 1012.7
20260504185025 79 35 8.0 20.0 0.00 0.00 0.00 55 1012.7
20260504184905 79 31 8.0 20.0 0.00 0.00 0.00 55 1012.6
20260504184805 79 30 8.0 20.0 0.00 0.00 0.00 55 1012.6
20260504184705 79 30 8.0 20.0 0.00 0.00 0.00 55 1012.6
20260504184605 79 31 7.0 15.0 0.00 0.00 0.00 55 1012.6
20260504184505 79 32 8.0 15.0 0.00 0.00 0.00 55 1012.6
20260504184426 79 35 8.0 15.0 0.00 0.00 0.00 55 1012.7
20260504184304 79 35 8.0 15.0 0.00 0.00 0.00 55 1012.7
20260504184226 79 35 8.0 15.0 0.00 0.00 0.00 56 1012.7
20260504184104 78 35 8.0 16.0 0.00 0.00 0.00 55 1012.8
20260504184004 78 36 9.0 16.0 0.00 0.00 0.00 56 1012.7
20260504183905 78 38 9.0 18.0 0.00 0.00 0.00 56 1012.7
20260504183805 78 38 9.0 18.0 0.00 0.00 0.00 55 1012.7
20260504183726 78 38 8.0 18.0 0.00 0.00 0.00 56 1012.8
20260504183604 78 37 9.0 18.0 0.00 0.00 0.00 56 1012.9
20260504183526 78 37 9.0 18.0 0.00 0.00 0.00 56 1012.9
20260504183404 78 34 9.0 18.0 0.00 0.00 0.00 55 1012.9
20260504183305 78 32 9.0 18.0 0.00 0.00 0.00 56 1013.0
20260504183205 78 30 9.0 18.0 0.00 0.00 0.00 55 1013.1
20260504183126 78 29 8.0 18.0 0.00 0.00 0.00 55 1013.0
20260504183004 78 29 8.0 18.0 0.00 0.00 0.00 55 1013.1
20260504182905 78 26 8.0 16.0 0.00 0.00 0.00 55 1013.1
20260504182826 78 27 8.0 16.0 0.00 0.00 0.00 55 1013.2
20260504182705 78 28 9.0 16.0 0.00 0.00 0.00 55 1013.1
20260504182604 78 30 8.0 16.0 0.00 0.00 0.00 55 1013.2
20260504182526 78 31 8.0 16.0 0.00 0.00 0.00 55 1013.2
20260504182404 78 33 8.0 16.0 0.00 0.00 0.00 55 1013.2
20260504182326 77 34 8.0 16.0 0.00 0.00 0.00 55 1013.2
20260504182225 77 37 8.0 16.0 0.00 0.00 0.00 55 1013.2
20260504182105 77 40 9.0 16.0 0.00 0.00 0.00 56 1013.3
20260504182005 77 40 9.0 16.0 0.00 0.00 0.00 56 1013.3
20260504181905 77 43 9.0 16.0 0.00 0.00 0.00 56 1013.3
20260504181805 77 44 9.0 16.0 0.00 0.00 0.00 56 1013.3
20260504181704 77 42 9.0 16.0 0.00 0.00 0.00 56 1013.3
20260504181605 77 41 9.0 16.0 0.00 0.00 0.00 56 1013.3
20260504181505 77 38 9.0 16.0 0.00 0.00 0.00 55 1013.3
20260504181404 77 40 9.0 16.0 0.00 0.00 0.00 55 1013.2
20260504181304 77 45 9.0 16.0 0.00 0.00 0.00 55 1013.2
20260504181205 77 47 9.0 16.0 0.00 0.00 0.00 55 1013.2
20260504160404 73 37 10.0 21.0 0.00 0.00 0.00 52 1014.8
20260504160304 73 36 10.0 21.0 0.00 0.00 0.00 52 1014.9
20260504160204 73 35 10.0 21.0 0.00 0.00 0.00 52 1014.9
20260504160104 73 34 10.0 21.0 0.00 0.00 0.00 52 1015.0
20260504151125 71 31 10.0 18.0 0.00 0.00 0.00 51 1015.0
20260504151004 71 32 10.0 19.0 0.00 0.00 0.00 51 1015.1
20260504150904 71 33 10.0 19.0 0.00 0.00 0.00 51 1015.2
20260504150804 71 35 10.0 19.0 0.00 0.00 0.00 51 1015.2
20260504150704 71 35 10.0 19.0 0.00 0.00 0.00 50 1015.2
20260504150604 71 36 10.0 19.0 0.00 0.00 0.00 50 1015.1
20260504150504 71 35 10.0 19.0 0.00 0.00 0.00 50 1015.1
20260504150404 71 34 9.0 19.0 0.00 0.00 0.00 51 1015.1
20260504150304 71 33 9.0 19.0 0.00 0.00 0.00 50 1015.1
20260504150204 71 32 9.0 19.0 0.00 0.00 0.00 50 1015.1
20260504150104 71 31 8.0 19.0 0.00 0.00 0.00 50 1015.1
20260504141304 68 23 5.0 11.0 0.00 0.00 0.00 45 1015.3
20260504141204 68 23 5.0 11.0 0.00 0.00 0.00 45 1015.3
20260504141104 68 20 5.0 11.0 0.00 0.00 0.00 44 1015.3
20260504141004 68 22 5.0 9.0 0.00 0.00 0.00 44 1015.4
20260504140904 68 19 4.0 8.0 0.00 0.00 0.00 43 1015.3
20260504140804 67 24 4.0 8.0 0.00 0.00 0.00 43 1015.4
20260504140704 67 25 5.0 8.0 0.00 0.00 0.00 43 1015.4
20260504140604 67 26 5.0 10.0 0.00 0.00 0.00 42 1015.3
20260504140525 67 25 5.0 10.0 0.00 0.00 0.00 42 1015.4
20260504140425 67 25 5.0 11.0 0.00 0.00 0.00 42 1015.5
20260504140304 67 25 5.0 11.0 0.00 0.00 0.00 42 1015.4
20260504140225 67 20 5.0 11.0 0.00 0.00 0.00 41 1015.4
20260504140125 67 22 5.0 11.0 0.00 0.00 0.00 40 1015.4
20260504130804 62 35 3.0 7.0 0.00 0.00 0.00 6 1015.3
20260504130705 62 33 3.0 7.0 0.00 0.00 0.00 7 1015.3
20260504130604 62 32 3.0 7.0 0.00 0.00 0.00 7 1015.3
20260504130525 62 30 3.0 8.0 0.00 0.00 0.00 7 1015.3
20260504130404 62 33 3.0 8.0 0.00 0.00 0.00 7 1015.3
20260504130304 62 34 3.0 9.0 0.00 0.00 0.00 7 1015.3
20260504130225 62 32 3.0 9.0 0.00 0.00 0.00 7 1015.3
20260504130104 62 29 3.0 9.0 0.00 0.00 0.00 7 1015.3
20260504120304 60 34 3.0 6.0 0.00 0.00 0.00 1 1014.5
20260504120204 60 34 3.0 6.0 0.00 0.00 0.00 1 1014.5
20260504120104 60 34 3.0 6.0 0.00 0.00 0.00 1 1014.5
20260504110704 61 51 3.0 7.0 0.00 0.00 0.00 1 1015.0
20260504110604 61 50 3.0 7.0 0.00 0.00 0.00 1 1015.1
20260504110504 61 50 3.0 7.0 0.00 0.00 0.00 1 1015.0
20260504110404 61 49 3.0 7.0 0.00 0.00 0.00 1 1015.0
20260504110304 61 48 3.0 7.0 0.00 0.00 0.00 1 1015.0
20260504110204 61 47 3.0 7.0 0.00 0.00 0.00 1 1015.0
20260504110104 61 46 3.0 7.0 0.00 0.00 0.00 1 1015.0
20260504100604 61 45 1.0 7.0 0.00 0.00 0.00 8 1015.2
20260504100525 61 45 1.0 7.0 0.00 0.00 0.00 8 1015.1
20260504100425 61 44 2.0 7.0 0.00 0.00 0.00 9 1015.2
20260504100304 61 42 2.0 7.0 0.00 0.00 0.00 10 1015.2
20260504100204 61 40 2.0 7.0 0.00 0.00 0.00 10 1015.2
20260504100104 61 34 3.0 7.0 0.00 0.00 0.00 10 1015.2
20260504090125 62 32 3.0 6.0 0.00 0.00 0.00 19 1015.2
20260504082004 63 42 2.0 5.0 0.00 0.00 0.00 32 1015.5
20260504081904 63 43 2.0 5.0 0.00 0.00 0.00 32 1015.5
20260504081825 63 42 2.0 5.0 0.00 0.00 0.00 33 1015.5
20260504081704 63 39 2.0 5.0 0.00 0.00 0.00 33 1015.6
20260504081604 63 35 2.0 5.0 0.00 0.00 0.00 34 1015.5
20260504081504 63 36 2.0 5.0 0.00 0.00 0.00 34 1015.6
20260504081404 63 36 2.0 6.0 0.00 0.00 0.00 35 1015.7
20260504081304 63 37 2.0 6.0 0.00 0.00 0.00 35 1015.6
20260504081204 63 36 2.0 6.0 0.00 0.00 0.00 36 1015.6
20260504081104 63 36 2.0 6.0 0.00 0.00 0.00 36 1015.6
20260504081004 63 35 2.0 6.0 0.00 0.00 0.00 37 1015.5
20260504080904 63 35 2.0 6.0 0.00 0.00 0.00 38 1015.6
20260504080804 63 35 2.0 6.0 0.00 0.00 0.00 38 1015.7
20260504080704 63 35 2.0 6.0 0.00 0.00 0.00 39 1015.6
20260504080604 63 35 2.0 6.0 0.00 0.00 0.00 39 1015.7
20260504080504 63 35 2.0 6.0 0.00 0.00 0.00 40 1015.7
20260504080404 63 35 2.0 6.0 0.00 0.00 0.00 40 1015.8
20260504080304 63 35 2.0 6.0 0.00 0.00 0.00 41 1015.7
20260504080204 63 36 2.0 6.0 0.00 0.00 0.00 41 1015.7
20260504080125 63 36 2.0 6.0 0.00 0.00 0.00 41 1015.7
20260504070304 64 39 3.0 7.0 0.00 0.00 0.00 47 1016.8
20260504070204 64 36 3.0 7.0 0.00 0.00 0.00 47 1016.8
20260504070104 64 31 4.0 10.0 0.00 0.00 0.00 47 1016.8
20260504060204 64 40 2.0 7.0 0.00 0.00 0.00 53 1017.4
20260504060104 64 42 2.0 7.0 0.00 0.00 0.00 53 1017.5
20260504050704 65 36 3.0 6.0 0.00 0.00 0.00 62 1017.6
20260504050604 65 36 3.0 6.0 0.00 0.00 0.00 62 1017.5
20260504050504 65 36 3.0 6.0 0.00 0.00 0.00 62 1017.6
20260504050404 65 32 3.0 6.0 0.00 0.00 0.00 62 1017.5
20260504050304 65 33 2.0 6.0 0.00 0.00 0.00 62 1017.5
20260504050204 66 36 2.0 6.0 0.00 0.00 0.00 62 1017.5
20260504050104 66 36 2.0 6.0 0.00 0.00 0.00 62 1017.6
20260504050004 66 30 2.0 7.0 0.00 0.00 0.00 62 1017.6
20260504045904 66 29 2.0 7.0 0.00 0.00 0.00 62 1017.6
20260504045825 66 29 2.0 7.0 0.00 0.00 0.00 62 1017.6
20260504045704 66 24 2.0 7.0 0.00 0.00 0.00 62 1017.6
20260504045604 66 24 2.0 7.0 0.00 0.00 0.00 62 1017.5
20260504045525 66 24 2.0 8.0 0.00 0.00 0.00 62 1017.5
20260504045404 66 26 2.0 8.0 0.00 0.00 0.00 62 1017.6
20260504045304 66 24 3.0 8.0 0.00 0.00 0.00 62 1017.6
20260504045204 66 28 3.0 8.0 0.00 0.00 0.00 62 1017.6
20260504045104 66 26 4.0 8.0 0.00 0.00 0.00 62 1017.7
20260504045004 66 32 3.0 8.0 0.00 0.00 0.00 62 1017.7
20260504044904 66 31 3.0 8.0 0.00 0.00 0.00 63 1017.7
20260504044825 66 31 3.0 8.0 0.00 0.00 0.00 63 1017.7
20260504044704 66 31 3.0 8.0 0.00 0.00 0.00 63 1017.7
20260504044604 66 29 2.0 8.0 0.00 0.00 0.00 63 1017.8
20260504044504 66 29 2.0 8.0 0.00 0.00 0.00 63 1017.8
20260504044404 66 31 2.0 8.0 0.00 0.00 0.00 63 1017.8
20260504044304 66 37 1.0 8.0 0.00 0.00 0.00 63 1017.8
20260504044205 66 34 1.0 8.0 0.00 0.00 0.00 63 1017.8
20260504044104 66 38 1.0 7.0 0.00 0.00 0.00 63 1017.8
20260504044004 66 35 1.0 7.0 0.00 0.00 0.00 63 1017.8
20260504043904 66 25 1.0 10.0 0.00 0.00 0.00 63 1017.7
20260504043825 66 12 1.0 10.0 0.00 0.00 0.00 63 1017.7
20260504043725 66 12 1.0 10.0 0.00 0.00 0.00 63 1017.7
20260504043604 66 13 1.0 10.0 0.00 0.00 0.00 63 1017.7
20260504043504 66 13 1.0 10.0 0.00 0.00 0.00 63 1017.7
20260504043404 66 14 1.0 10.0 0.00 0.00 0.00 63 1017.8
20260504043304 66 353 1.0 10.0 0.00 0.00 0.00 63 1017.7
20260504043204 66 343 1.0 10.0 0.00 0.00 0.00 63 1017.7
20260504043104 66 347 2.0 10.0 0.00 0.00 0.00 63 1017.7
20260504043025 66 354 2.0 10.0 0.00 0.00 0.00 63 1017.7
20260504042904 67 2 2.0 9.0 0.00 0.00 0.00 63 1017.8
20260504042825 67 360 3.0 9.0 0.00 0.00 0.00 63 1017.8
20260504042725 67 360 3.0 9.0 0.00 0.00 0.00 63 1017.8
20260504042604 67 1 3.0 9.0 0.00 0.00 0.00 63 1017.8
20260504042504 67 4 3.0 9.0 0.00 0.00 0.00 63 1017.8
20260504042404 67 4 3.0 9.0 0.00 0.00 0.00 63 1017.9
20260504042304 67 9 3.0 9.0 0.00 0.00 0.00 63 1017.9
20260504042204 67 12 4.0 9.0 0.00 0.00 0.00 63 1018.0
20260504042104 67 14 3.0 9.0 0.00 0.00 0.00 63 1017.9
20260504042004 67 11 3.0 9.0 0.00 0.00 0.00 63 1017.9
20260504041925 67 6 3.0 9.0 0.00 0.00 0.00 63 1017.9
20260504041804 67 17 2.0 9.0 0.00 0.00 0.00 64 1018.0
20260504041704 67 21 2.0 9.0 0.00 0.00 0.00 64 1017.9
20260504041604 67 20 2.0 10.0 0.00 0.00 0.00 64 1017.9
20260504041504 67 15 2.0 10.0 0.00 0.00 0.00 64 1018.0
20260504041404 67 10 2.0 10.0 0.00 0.00 0.00 64 1017.9
20260504041304 67 13 1.0 10.0 0.00 0.00 0.00 64 1017.9
20260504041225 67 7 1.0 10.0 0.00 0.00 0.00 64 1017.9
20260504041104 67 357 1.0 10.0 0.00 0.00 0.00 64 1017.9
20260504041025 67 355 1.0 10.0 0.00 0.00 0.00 64 1017.9
20260504040904 67 351 1.0 10.0 0.00 0.00 0.00 64 1017.9
20260504040825 67 346 1.0 10.0 0.00 0.00 0.00 64 1018.0
20260504040704 67 354 1.0 10.0 0.00 0.00 0.00 64 1018.0
20260504040625 67 355 1.0 10.0 0.00 0.00 0.00 64 1018.0
20260504040504 67 353 2.0 10.0 0.00 0.00 0.00 64 1017.9
20260504040404 67 1 2.0 10.0 0.00 0.00 0.00 64 1017.9
20260504040325 67 4 2.0 10.0 0.00 0.00 0.00 64 1017.9
20260504040204 67 8 3.0 10.0 0.00 0.00 0.00 64 1017.9
20260504040104 67 10 3.0 10.0 0.00 0.00 0.00 64 1017.9
20260504040004 67 9 4.0 10.0 0.00 0.00 0.00 64 1017.9
20260504035904 67 8 4.0 10.0 0.00 0.00 0.00 64 1018.0
20260504035804 67 6 4.0 10.0 0.00 0.00 0.00 64 1018.0
20260504035704 67 6 4.0 10.0 0.00 0.00 0.00 64 1018.0
20260504035604 67 9 3.0 10.0 0.00 0.00 0.00 64 1018.0
20260504035504 67 3 3.0 10.0 0.00 0.00 0.00 63 1018.0
20260504035425 67 359 4.0 9.0 0.00 0.00 0.00 63 1018.0
20260504035305 68 352 4.0 10.0 0.00 0.00 0.00 63 1018.0
20260504035205 68 350 4.0 10.0 0.00 0.00 0.00 63 1018.0
20260504035104 68 346 4.0 10.0 0.00 0.00 0.00 63 1018.0
20260504035004 68 345 3.0 10.0 0.00 0.00 0.00 63 1018.0
20260504034904 68 341 3.0 10.0 0.00 0.00 0.00 63 1017.9
20260504034825 68 341 2.0 10.0 0.00 0.00 0.00 62 1017.9
20260504034704 68 342 3.0 10.0 0.00 0.00 0.00 62 1017.9
20260504034604 68 343 3.0 10.0 0.00 0.00 0.00 62 1017.9
20260504034504 68 347 2.0 10.0 0.00 0.00 0.00 61 1017.9
20260504034404 68 347 2.0 9.0 0.00 0.00 0.00 61 1017.9
20260504034325 68 342 2.0 7.0 0.00 0.00 0.00 61 1017.9
20260504034204 68 327 1.0 7.0 0.00 0.00 0.00 61 1017.9
20260504034104 68 323 1.0 6.0 0.00 0.00 0.00 61 1017.8
20260504034004 68 320 1.0 6.0 0.00 0.00 0.00 61 1017.8
20260504033904 68 320 1.0 6.0 0.00 0.00 0.00 60 1017.8
20260504033804 68 320 1.0 6.0 0.00 0.00 0.00 60 1017.8
20260504033704 68 319 1.0 6.0 0.00 0.00 0.00 60 1017.8
20260504033604 68 310 1.0 6.0 0.00 0.00 0.00 60 1017.8
20260504033504 68 312 1.0 6.0 0.00 0.00 0.00 60 1017.7
20260504033404 68 311 1.0 6.0 0.00 0.00 0.00 59 1017.8
20260504033304 68 303 0.0 6.0 0.00 0.00 0.00 59 1017.7
20260504033204 68 333 0.0 5.0 0.00 0.00 0.00 59 1017.7
20260504033104 68 318 0.0 5.0 0.00 0.00 0.00 59 1017.7
20260504033004 68 311 0.0 5.0 0.00 0.00 0.00 59 1017.7
20260504032904 69 315 1.0 5.0 0.00 0.00 0.00 59 1017.7
20260504032804 69 329 1.0 9.0 0.00 0.00 0.00 58 1017.7
20260504032704 69 332 1.0 9.0 0.00 0.00 0.00 58 1017.7
20260504032604 69 332 1.0 9.0 0.00 0.00 0.00 58 1017.7
20260504032504 69 332 1.0 9.0 0.00 0.00 0.00 58 1017.8
20260504032404 69 332 1.0 9.0 0.00 0.00 0.00 58 1017.8
20260504032304 69 330 1.0 9.0 0.00 0.00 0.00 58 1017.8
20260504032204 69 330 1.0 9.0 0.00 0.00 0.00 58 1017.8
20260504032104 69 332 1.0 9.0 0.00 0.00 0.00 58 1017.8
20260504032004 69 333 1.0 9.0 0.00 0.00 0.00 57 1017.8
20260504031904 69 337 1.0 9.0 0.00 0.00 0.00 57 1017.8
20260504031825 69 333 1.0 6.0 0.00 0.00 0.00 57 1017.8
20260504031704 69 322 0.0 6.0 0.00 0.00 0.00 58 1017.8
20260504031604 69 322 0.0 6.0 0.00 0.00 0.00 57 1017.8
20260504031525 69 322 0.0 6.0 0.00 0.00 0.00 57 1017.7
20260504031404 69 319 0.0 4.0 0.00 0.00 0.00 57 1017.7
20260504031304 69 319 0.0 4.0 0.00 0.00 0.00 57 1017.7
20260504031204 69 347 0.0 4.0 0.00 0.00 0.00 57 1017.7
20260504031104 69 355 0.0 4.0 0.00 0.00 0.00 57 1017.7
20260504031025 69 11 0.0 4.0 0.00 0.00 0.00 57 1017.7
20260504030904 69 21 0.0 5.0 0.00 0.00 0.00 57 1017.7
20260504030804 69 21 0.0 5.0 0.00 0.00 0.00 57 1017.7
20260504030704 69 19 1.0 5.0 0.00 0.00 0.00 57 1017.7
20260504030604 69 6 1.0 5.0 0.00 0.00 0.00 57 1017.7
20260504030525 69 358 1.0 5.0 0.00 0.00 0.00 57 1017.7
20260504030404 69 356 1.0 5.0 0.00 0.00 0.00 57 1017.7
20260504030304 69 356 1.0 5.0 0.00 0.00 0.00 57 1017.7
20260504030225 69 356 1.0 5.0 0.00 0.00 0.00 57 1017.6
20260504030104 69 351 1.0 5.0 0.00 0.00 0.00 56 1017.6
20260504030004 70 336 1.0 4.0 0.00 0.00 0.00 57 1017.6
20260504025904 70 336 1.0 4.0 0.00 0.00 0.00 57 1017.6
20260504025804 70 336 1.0 4.0 0.00 0.00 0.00 56 1017.6
20260504025704 70 336 1.0 4.0 0.00 0.00 0.00 56 1017.5
20260504025604 70 333 0.0 4.0 0.00 0.00 0.00 56 1017.6
20260504025504 70 331 0.0 1.0 0.00 0.00 0.00 56 1017.6
20260504025404 70 0 0.0 0.0 0.00 0.00 0.00 56 1017.7
20260504025304 70 329 0.0 2.0 0.00 0.00 0.00 56 1017.7
20260504025204 70 329 0.0 2.0 0.00 0.00 0.00 56 1017.8
20260504025104 70 329 0.0 2.0 0.00 0.00 0.00 56 1017.8
20260504025004 70 329 0.0 2.0 0.00 0.00 0.00 56 1017.7
20260504024925 70 329 0.0 2.0 0.00 0.00 0.00 56 1017.7
20260504024804 70 329 0.0 2.0 0.00 0.00 0.00 56 1017.7
20260504024704 70 333 0.0 4.0 0.00 0.00 0.00 56 1017.7
20260504024604 70 332 0.0 4.0 0.00 0.00 0.00 56 1017.7
20260504024504 70 332 0.0 4.0 0.00 0.00 0.00 56 1017.7
20260504024404 70 332 0.0 4.0 0.00 0.00 0.00 56 1017.7
20260504024304 70 333 0.0 4.0 0.00 0.00 0.00 56 1017.7
20260504024225 70 333 0.0 4.0 0.00 0.00 0.00 56 1017.7
20260504024105 70 333 0.0 4.0 0.00 0.00 0.00 56 1017.7
20260504024004 70 333 0.0 4.0 0.00 0.00 0.00 56 1017.6
20260504023925 70 333 0.0 4.0 0.00 0.00 0.00 56 1017.6
20260504023804 70 333 0.0 4.0 0.00 0.00 0.00 56 1017.5
20260504023725 70 333 0.0 4.0 0.00 0.00 0.00 56 1017.5
20260504023604 70 0 0.0 0.0 0.00 0.00 0.00 56 1017.5
20260504023525 70 0 0.0 0.0 0.00 0.00 0.00 56 1017.4
20260504023425 70 0 0.0 0.0 0.00 0.00 0.00 56 1017.4
20260504023304 70 0 0.0 0.0 0.00 0.00 0.00 56 1017.5
20260504023204 70 0 0.0 0.0 0.00 0.00 0.00 56 1017.5
20260504023104 70 0 0.0 0.0 0.00 0.00 0.00 56 1017.5
20260504023004 70 0 0.0 0.0 0.00 0.00 0.00 56 1017.6
20260504022904 70 336 0.0 1.0 0.00 0.00 0.00 56 1017.6
20260504022804 70 336 0.0 1.0 0.00 0.00 0.00 56 1017.6
20260504022704 70 336 0.0 1.0 0.00 0.00 0.00 56 1017.6
20260504022625 70 336 0.0 1.0 0.00 0.00 0.00 56 1017.6
20260504022504 70 336 0.0 1.0 0.00 0.00 0.00 56 1017.7
20260504022404 70 336 0.0 1.0 0.00 0.00 0.00 56 1017.7
20260504022305 70 336 0.0 1.0 0.00 0.00 0.00 56 1017.7
20260504022204 70 335 0.0 3.0 0.00 0.00 0.00 56 1017.7
20260504022104 70 335 0.0 3.0 0.00 0.00 0.00 56 1017.6
20260504022004 70 335 0.0 3.0 0.00 0.00 0.00 55 1017.6
20260504021925 70 335 0.0 3.0 0.00 0.00 0.00 55 1017.6
20260504021804 70 335 0.0 3.0 0.00 0.00 0.00 55 1017.6
20260504021704 71 335 0.0 3.0 0.00 0.00 0.00 55 1017.6
20260504021604 71 335 0.0 3.0 0.00 0.00 0.00 54 1017.6
20260504021504 71 335 0.0 3.0 0.00 0.00 0.00 54 1017.5
20260504021426 71 335 0.0 3.0 0.00 0.00 0.00 54 1017.5
20260504021304 71 335 0.0 3.0 0.00 0.00 0.00 54 1017.5
20260504021205 71 335 0.0 2.0 0.00 0.00 0.00 54 1017.5
20260504021104 71 0 0.0 0.0 0.00 0.00 0.00 54 1017.5
20260504021004 71 0 0.0 0.0 0.00 0.00 0.00 54 1017.5
20260504020925 71 0 0.0 0.0 0.00 0.00 0.00 54 1017.5
20260504020804 71 0 0.0 0.0 0.00 0.00 0.00 54 1017.5
20260504020725 71 0 0.0 0.0 0.00 0.00 0.00 54 1017.4
20260504020604 71 0 0.0 0.0 0.00 0.00 0.00 54 1017.4
20260504020504 71 0 0.0 0.0 0.00 0.00 0.00 54 1017.4
20260504020404 71 0 0.0 0.0 0.00 0.00 0.00 54 1017.3
20260504020304 71 0 0.0 0.0 0.00 0.00 0.00 54 1017.3
20260504020204 71 0 0.0 0.0 0.00 0.00 0.00 54 1017.3
20260504020104 71 0 0.0 0.0 0.00 0.00 0.00 53 1017.3
20260504020004 71 0 0.0 0.0 0.00 0.00 0.00 54 1017.2
20260504015904 71 0 0.0 0.0 0.00 0.00 0.00 54 1017.2
20260504015804 71 0 0.0 0.0 0.00 0.00 0.00 54 1017.2
20260504015704 71 0 0.0 0.0 0.00 0.00 0.00 54 1017.2
20260504015604 71 0 0.0 0.0 0.00 0.00 0.00 54 1017.1
20260504015504 71 0 0.0 0.0 0.00 0.00 0.00 54 1017.1
20260504015404 71 0 0.0 0.0 0.00 0.00 0.00 54 1017.1
20260504015304 71 0 0.0 0.0 0.00 0.00 0.00 54 1017.1
20260504015204 71 0 0.0 0.0 0.00 0.00 0.00 54 1017.0
20260504015104 71 0 0.0 0.0 0.00 0.00 0.00 54 1017.0
20260504015004 71 0 0.0 0.0 0.00 0.00 0.00 54 1017.0
20260504014904 71 0 0.0 0.0 0.00 0.00 0.00 54 1017.0
20260504014825 71 0 0.0 0.0 0.00 0.00 0.00 54 1017.0
20260504014704 71 0 0.0 0.0 0.00 0.00 0.00 54 1017.0
20260504014604 71 0 0.0 0.0 0.00 0.00 0.00 54 1017.0
20260504014525 71 0 0.0 0.0 0.00 0.00 0.00 54 1016.9
20260504014404 71 0 0.0 0.0 0.00 0.00 0.00 54 1016.9
20260504014325 71 0 0.0 0.0 0.00 0.00 0.00 54 1016.9
20260504014204 72 0 0.0 0.0 0.00 0.00 0.00 54 1016.9
20260504014104 72 0 0.0 0.0 0.00 0.00 0.00 54 1016.9
20260504014025 72 0 0.0 0.0 0.00 0.00 0.00 53 1017.0
20260504013925 72 0 0.0 1.0 0.00 0.00 0.00 53 1017.0
20260504013804 72 0 0.0 1.0 0.00 0.00 0.00 53 1017.0
20260504013704 72 0 0.0 1.0 0.00 0.00 0.00 53 1017.0
20260504013625 72 0 0.0 1.0 0.00 0.00 0.00 53 1017.0
20260504013504 72 0 0.0 1.0 0.00 0.00 0.00 52 1017.0
20260504013404 72 0 0.0 1.0 0.00 0.00 0.00 52 1017.0
20260504013304 72 0 0.0 1.0 0.00 0.00 0.00 52 1017.0
20260504013204 72 0 0.0 1.0 0.00 0.00 0.00 52 1017.0
20260504013104 72 0 0.0 1.0 0.00 0.00 0.00 52 1016.9
20260504013025 72 0 0.0 1.0 0.00 0.00 0.00 52 1016.9
20260504012925 72 333 0.0 2.0 0.00 0.00 0.00 51 1016.9
20260504012804 72 333 0.0 2.0 0.00 0.00 0.00 51 1016.8
20260504012704 72 333 0.0 2.0 0.00 0.00 0.00 51 1016.9
20260504012604 72 333 0.0 2.0 0.00 0.00 0.00 51 1016.9
20260504012504 73 333 0.0 2.0 0.00 0.00 0.00 51 1016.9
20260504012404 73 333 0.0 2.0 0.00 0.00 0.00 51 1017.0
20260504012304 73 333 0.0 2.0 0.00 0.00 0.00 51 1017.0
20260504012204 73 333 0.0 2.0 0.00 0.00 0.00 51 1017.0
20260504012125 73 333 0.0 2.0 0.00 0.00 0.00 51 1017.0
20260504012004 73 333 0.0 2.0 0.00 0.00 0.00 50 1017.0
20260504011925 73 333 0.0 2.0 0.00 0.00 0.00 50 1017.0
20260504011825 73 333 0.0 2.0 0.00 0.00 0.00 50 1016.9
20260504011704 73 333 0.0 2.0 0.00 0.00 0.00 50 1017.0
20260504011604 73 333 0.0 2.0 0.00 0.00 0.00 50 1017.0
20260504011504 73 333 0.0 2.0 0.00 0.00 0.00 50 1017.0
20260504011404 73 333 0.0 2.0 0.00 0.00 0.00 49 1017.0
20260504011304 73 0 0.0 0.0 0.00 0.00 0.00 49 1017.0
20260504011204 73 0 0.0 0.0 0.00 0.00 0.00 49 1017.0
20260504011104 74 333 0.0 4.0 0.00 0.00 0.00 49 1017.0
20260504011004 74 333 0.0 4.0 0.00 0.00 0.00 49 1017.0
20260504010904 74 333 0.0 4.0 0.00 0.00 0.00 49 1017.0
20260504010804 74 333 0.0 4.0 0.00 0.00 0.00 49 1017.0
20260504010704 74 333 0.0 4.0 0.00 0.00 0.00 49 1017.0
20260504010604 74 333 0.0 4.0 0.00 0.00 0.00 48 1017.0
20260504010504 74 333 0.0 4.0 0.00 0.00 0.00 48 1017.0
20260504010425 74 334 0.0 4.0 0.00 0.00 0.00 48 1017.0
20260504010304 74 334 0.0 4.0 0.00 0.00 0.00 48 1016.9
20260504010204 74 333 0.0 4.0 0.00 0.00 0.00 48 1016.9
20260504010104 74 334 0.0 3.0 0.00 0.00 0.00 48 1016.9
20260504010004 74 333 0.0 3.0 0.00 0.00 0.00 48 1016.9
20260504005904 74 333 0.0 3.0 0.00 0.00 0.00 47 1016.9
20260504005804 74 332 0.0 3.0 0.00 0.00 0.00 47 1016.9
20260504005704 74 329 0.0 3.0 0.00 0.00 0.00 47 1016.9
20260504005604 74 329 0.0 3.0 0.00 0.00 0.00 47 1016.9
20260504005504 75 329 0.0 3.0 0.00 0.00 0.00 47 1016.9
20260504005425 75 327 0.0 3.0 0.00 0.00 0.00 47 1016.9
20260504005305 75 327 0.0 3.0 0.00 0.00 0.00 47 1017.0
20260504005204 75 326 0.0 3.0 0.00 0.00 0.00 47 1016.9
20260504005104 75 344 0.0 3.0 0.00 0.00 0.00 46 1016.9
20260504005004 75 1 0.0 4.0 0.00 0.00 0.00 46 1016.9
20260504004904 75 1 0.0 4.0 0.00 0.00 0.00 46 1016.9
20260504004825 75 1 0.0 4.0 0.00 0.00 0.00 46 1016.9
20260504004725 75 5 0.0 4.0 0.00 0.00 0.00 46 1016.9
20260504004604 75 21 0.0 4.0 0.00 0.00 0.00 45 1016.9
20260504004525 75 21 0.0 4.0 0.00 0.00 0.00 45 1016.9
20260504004404 75 21 0.0 4.0 0.00 0.00 0.00 45 1016.9
20260504004304 76 21 0.0 4.0 0.00 0.00 0.00 45 1016.8
20260504004204 76 21 0.0 4.0 0.00 0.00 0.00 45 1016.9
20260504004104 76 20 0.0 4.0 0.00 0.00 0.00 45 1016.9
20260504004004 76 329 0.0 1.0 0.00 0.00 0.00 44 1016.8
20260504003904 76 329 0.0 1.0 0.00 0.00 0.00 44 1016.8
20260504003804 76 0 0.0 0.0 0.00 0.00 0.00 44 1016.8
20260504003704 76 0 0.0 0.0 0.00 0.00 0.00 44 1016.9
20260504003604 76 0 0.0 0.0 0.00 0.00 0.00 44 1016.9
20260504003504 76 347 0.0 5.0 0.00 0.00 0.00 44 1016.9
20260504003404 76 29 0.0 5.0 0.00 0.00 0.00 44 1016.9
20260504003304 76 44 0.0 5.0 0.00 0.00 0.00 44 1017.0
20260504003225 76 44 0.0 5.0 0.00 0.00 0.00 44 1016.9
20260504003125 76 43 1.0 5.0 0.00 0.00 0.00 44 1016.9
20260504003004 77 43 1.0 5.0 0.00 0.00 0.00 44 1017.0
20260504002904 77 43 1.0 5.0 0.00 0.00 0.00 43 1017.0
20260504002804 77 43 1.0 5.0 0.00 0.00 0.00 43 1017.0
20260504002704 77 36 1.0 5.0 0.00 0.00 0.00 44 1017.0
20260504002625 77 36 1.0 5.0 0.00 0.00 0.00 43 1017.0
20260504002504 77 27 1.0 5.0 0.00 0.00 0.00 43 1017.0
20260504002404 77 23 0.0 5.0 0.00 0.00 0.00 43 1017.0
20260504002304 77 12 1.0 5.0 0.00 0.00 0.00 44 1017.0
20260504002204 77 16 1.0 5.0 0.00 0.00 0.00 43 1017.0
20260504002104 77 13 1.0 8.0 0.00 0.00 0.00 43 1017.1
20260504002004 77 17 1.0 8.0 0.00 0.00 0.00 43 1017.1
20260504001904 77 17 1.0 8.0 0.00 0.00 0.00 43 1017.1
20260504001804 77 17 1.0 8.0 0.00 0.00 0.00 43 1017.0
20260504001704 77 19 1.0 8.0 0.00 0.00 0.00 43 1017.1
20260504001604 77 21 1.0 8.0 0.00 0.00 0.00 42 1017.1
20260504001504 77 31 1.0 8.0 0.00 0.00 0.00 42 1017.1
20260504001425 77 30 1.0 8.0 0.00 0.00 0.00 43 1017.1
20260504001304 77 30 1.0 8.0 0.00 0.00 0.00 42 1017.2
20260504001225 77 27 1.0 8.0 0.00 0.00 0.00 42 1017.2
20260504001104 77 38 0.0 5.0 0.00 0.00 0.00 43 1017.3
20260504001025 77 37 1.0 5.0 0.00 0.00 0.00 43 1017.2
20260504000904 77 29 1.0 8.0 0.00 0.00 0.00 43 1017.3
20260504000804 77 31 1.0 8.0 0.00 0.00 0.00 43 1017.3
20260504000704 77 35 1.0 10.0 0.00 0.00 0.00 43 1017.3
20260504000604 77 36 1.0 10.0 0.00 0.00 0.00 43 1017.3
20260504000525 77 36 1.0 10.0 0.00 0.00 0.00 43 1017.3
20260504000425 77 36 1.0 10.0 0.00 0.00 0.00 43 1017.3
20260504000304 77 35 1.0 10.0 0.00 0.00 0.00 43 1017.4
20260504000204 77 37 1.0 10.0 0.00 0.00 0.00 43 1017.4
20260504000125 77 37 2.0 10.0 0.00 0.00 0.00 43 1017.4
20260504000004 77 37 1.0 10.0 0.00 0.00 0.00 43 1017.4
20260503235904 77 41 1.0 10.0 0.00 0.00 0.00 42 1017.4
20260503235825 77 41 1.0 10.0 0.00 0.00 0.00 42 1017.4
20260503235704 77 40 1.0 8.0 0.00 0.00 0.00 43 1017.4
20260503235604 78 40 1.0 8.0 0.00 0.00 0.00 42 1017.4
20260503235525 78 40 1.0 8.0 0.00 0.00 0.00 42 1017.3
20260503235404 78 40 1.0 8.0 0.00 0.00 0.00 43 1017.4
20260503235304 78 41 1.0 8.0 0.00 0.00 0.00 43 1017.3
20260503235204 78 40 1.0 8.0 0.00 0.00 0.00 42 1017.3
20260503235104 78 45 0.0 5.0 0.00 0.00 0.00 43 1017.3
20260503235004 78 43 0.0 5.0 0.00 0.00 0.00 43 1017.3
20260503234925 78 42 0.0 5.0 0.00 0.00 0.00 43 1017.3
20260503234804 78 43 0.0 5.0 0.00 0.00 0.00 42 1017.3
20260503234704 78 342 0.0 1.0 0.00 0.00 0.00 42 1017.4
20260503234604 78 342 0.0 1.0 0.00 0.00 0.00 42 1017.4
20260503234525 78 342 0.0 1.0 0.00 0.00 0.00 42 1017.4
20260503234404 78 9 0.0 1.0 0.00 0.00 0.00 42 1017.4
20260503234304 78 9 0.0 1.0 0.00 0.00 0.00 41 1017.4
20260503234204 78 9 0.0 1.0 0.00 0.00 0.00 40 1017.4
20260503234104 78 9 0.0 1.0 0.00 0.00 0.00 41 1017.4
20260503234004 78 359 0.0 1.0 0.00 0.00 0.00 40 1017.5
20260503233925 78 3 0.0 1.0 0.00 0.00 0.00 40 1017.5
20260503233804 78 3 0.0 1.0 0.00 0.00 0.00 40 1017.5
20260503233704 78 3 0.0 1.0 0.00 0.00 0.00 40 1017.5
20260503233604 78 3 0.0 1.0 0.00 0.00 0.00 41 1017.6
20260503233504 78 355 0.0 1.0 0.00 0.00 0.00 41 1017.6
20260503233425 78 355 0.0 1.0 0.00 0.00 0.00 41 1017.5
20260503233304 78 334 0.0 1.0 0.00 0.00 0.00 41 1017.5
20260503233204 78 334 0.0 1.0 0.00 0.00 0.00 40 1017.6
20260503233104 78 334 0.0 1.0 0.00 0.00 0.00 40 1017.5
20260503233004 78 0 0.0 1.0 0.00 0.00 0.00 40 1017.5
20260503232904 78 0 0.0 1.0 0.00 0.00 0.00 41 1017.5
20260503232804 78 0 0.0 1.0 0.00 0.00 0.00 42 1017.5
20260503232704 78 0 0.0 1.0 0.00 0.00 0.00 41 1017.5
20260503232604 78 0 0.0 1.0 0.00 0.00 0.00 41 1017.5
20260503232504 78 0 0.0 1.0 0.00 0.00 0.00 41 1017.5
20260503232404 78 0 0.0 1.0 0.00 0.00 0.00 41 1017.5
20260503232305 78 0 0.0 1.0 0.00 0.00 0.00 41 1017.6
20260503232204 78 0 0.0 9.0 0.00 0.00 0.00 41 1017.6
20260503232104 78 14 0.0 9.0 0.00 0.00 0.00 41 1017.6
20260503232004 78 14 0.0 9.0 0.00 0.00 0.00 40 1017.6
20260503231925 78 14 0.0 9.0 0.00 0.00 0.00 40 1017.5
20260503231804 78 5 0.0 9.0 0.00 0.00 0.00 39 1017.5
20260503231704 78 357 0.0 9.0 0.00 0.00 0.00 39 1017.5
20260503231604 78 349 0.0 9.0 0.00 0.00 0.00 39 1017.4
20260503231504 78 356 0.0 9.0 0.00 0.00 0.00 39 1017.4
20260503231404 78 344 1.0 9.0 0.00 0.00 0.00 39 1017.4
20260503231304 78 2 1.0 9.0 0.00 0.00 0.00 38 1017.4
20260503231225 78 5 2.0 10.0 0.00 0.00 0.00 38 1017.4
20260503231104 79 2 2.0 10.0 0.00 0.00 0.00 38 1017.4
20260503231004 79 2 2.0 10.0 0.00 0.00 0.00 38 1017.4
20260503230904 79 10 2.0 10.0 0.00 0.00 0.00 38 1017.4
20260503230804 79 18 3.0 10.0 0.00 0.00 0.00 38 1017.4
20260503230704 79 22 3.0 10.0 0.00 0.00 0.00 39 1017.4
20260503230604 79 28 3.0 10.0 0.00 0.00 0.00 38 1017.3
20260503230504 80 30 3.0 10.0 0.00 0.00 0.00 37 1017.4
20260503230404 80 38 3.0 10.0 0.00 0.00 0.00 38 1017.4
20260503230304 80 34 3.0 10.0 0.00 0.00 0.00 38 1017.4
20260503230204 80 36 3.0 9.0 0.00 0.00 0.00 38 1017.4
20260503230125 80 42 3.0 8.0 0.00 0.00 0.00 39 1017.4
20260503230004 80 40 3.0 8.0 0.00 0.00 0.00 39 1017.4
20260503225904 80 38 3.0 8.0 0.00 0.00 0.00 38 1017.5
20260503225804 80 29 2.0 8.0 0.00 0.00 0.00 37 1017.6
20260503225704 80 25 3.0 8.0 0.00 0.00 0.00 37 1017.7
20260503225604 80 15 3.0 11.0 0.00 0.00 0.00 38 1017.6
20260503225504 80 13 3.0 11.0 0.00 0.00 0.00 38 1017.6
20260503225404 80 15 3.0 11.0 0.00 0.00 0.00 38 1017.5
20260503225304 80 17 4.0 11.0 0.00 0.00 0.00 38 1017.5
20260503225204 80 18 4.0 13.0 0.00 0.00 0.00 37 1017.4
20260503225104 80 21 5.0 13.0 0.00 0.00 0.00 38 1017.4
20260503225004 80 24 6.0 13.0 0.00 0.00 0.00 38 1017.4
20260503224904 80 23 6.0 13.0 0.00 0.00 0.00 37 1017.4
20260503224804 80 26 6.0 13.0 0.00 0.00 0.00 37 1017.5
20260503224725 80 28 6.0 13.0 0.00 0.00 0.00 38 1017.6
20260503224604 80 32 6.0 13.0 0.00 0.00 0.00 39 1017.7
20260503224504 80 34 6.0 13.0 0.00 0.00 0.00 38 1017.8
20260503224404 80 35 7.0 13.0 0.00 0.00 0.00 38 1017.8
20260503224304 80 34 7.0 13.0 0.00 0.00 0.00 37 1017.8
20260503224225 80 34 6.0 15.0 0.00 0.00 0.00 37 1017.8
20260503224104 80 34 6.0 15.0 0.00 0.00 0.00 37 1017.7
20260503224025 80 31 6.0 15.0 0.00 0.00 0.00 37 1017.8
20260503223904 80 31 6.0 15.0 0.00 0.00 0.00 38 1017.8
20260503223804 80 30 7.0 15.0 0.00 0.00 0.00 37 1017.8
20260503223725 80 30 7.0 15.0 0.00 0.00 0.00 39 1017.8
20260503223604 80 29 7.0 15.0 0.00 0.00 0.00 38 1017.9
20260503223504 80 28 7.0 15.0 0.00 0.00 0.00 38 1017.9
20260503223404 80 27 6.0 17.0 0.00 0.00 0.00 38 1017.9
20260503223304 80 27 5.0 17.0 0.00 0.00 0.00 38 1017.9
20260503223204 80 28 5.0 17.0 0.00 0.00 0.00 38 1017.9
20260503223104 80 24 5.0 17.0 0.00 0.00 0.00 38 1017.9
20260503223004 80 24 5.0 17.0 0.00 0.00 0.00 39 1017.8
20260503222925 80 22 4.0 17.0 0.00 0.00 0.00 39 1017.8
20260503222804 80 23 3.0 17.0 0.00 0.00 0.00 39 1017.8
20260503222704 80 20 3.0 17.0 0.00 0.00 0.00 39 1017.8
20260503222604 80 17 2.0 17.0 0.00 0.00 0.00 38 1017.8
20260503222504 80 8 1.0 17.0 0.00 0.00 0.00 39 1017.9
20260503222404 80 354 1.0 8.0 0.00 0.00 0.00 38 1017.9
20260503222304 80 11 2.0 11.0 0.00 0.00 0.00 38 1017.9
20260503222204 80 18 2.0 11.0 0.00 0.00 0.00 38 1017.9
20260503222104 80 25 2.0 11.0 0.00 0.00 0.00 39 1018.0
20260503222004 80 37 2.0 11.0 0.00 0.00 0.00 40 1018.0
20260503221904 80 38 1.0 11.0 0.00 0.00 0.00 39 1018.0
20260503221804 80 37 1.0 11.0 0.00 0.00 0.00 38 1018.0
20260503221704 80 36 1.0 11.0 0.00 0.00 0.00 38 1018.0
20260503221604 80 35 2.0 11.0 0.00 0.00 0.00 38 1018.1
20260503221525 80 38 2.0 11.0 0.00 0.00 0.00 39 1018.1
20260503221425 80 39 2.0 13.0 0.00 0.00 0.00 38 1018.1
20260503221304 80 40 1.0 13.0 0.00 0.00 0.00 39 1018.1
20260503221204 80 44 1.0 13.0 0.00 0.00 0.00 38 1018.1
20260503221125 81 41 1.0 13.0 0.00 0.00 0.00 38 1018.1
20260503221004 81 38 1.0 13.0 0.00 0.00 0.00 38 1018.1
20260503220904 81 36 1.0 13.0 0.00 0.00 0.00 38 1018.1
20260503220825 80 36 1.0 13.0 0.00 0.00 0.00 39 1018.1
20260503220704 80 39 1.0 13.0 0.00 0.00 0.00 38 1018.1
20260503220604 80 39 1.0 13.0 0.00 0.00 0.00 39 1018.2
20260503220504 80 32 1.0 13.0 0.00 0.00 0.00 40 1018.1
20260503220404 80 18 1.0 8.0 0.00 0.00 0.00 38 1018.1
20260503220304 81 23 1.0 8.0 0.00 0.00 0.00 37 1018.1
20260503220225 81 24 1.0 8.0 0.00 0.00 0.00 37 1018.1
20260503220104 81 33 2.0 8.0 0.00 0.00 0.00 38 1018.1
20260503220004 81 38 2.0 11.0 0.00 0.00 0.00 39 1018.2
20260503215904 81 39 2.0 11.0 0.00 0.00 0.00 39 1018.1
20260503215804 80 39 2.0 11.0 0.00 0.00 0.00 40 1018.1
20260503215704 80 39 2.0 11.0 0.00 0.00 0.00 38 1018.2
20260503215604 80 40 2.0 11.0 0.00 0.00 0.00 39 1018.1
20260503215504 80 42 2.0 11.0 0.00 0.00 0.00 39 1018.1
20260503215404 80 43 1.0 11.0 0.00 0.00 0.00 38 1018.2
20260503215304 80 46 1.0 11.0 0.00 0.00 0.00 38 1018.2
20260503215204 80 49 1.0 11.0 0.00 0.00 0.00 37 1018.2
20260503215104 81 43 0.0 11.0 0.00 0.00 0.00 38 1018.2
20260503215004 80 9 1.0 7.0 0.00 0.00 0.00 39 1018.3
20260503214904 80 352 1.0 7.0 0.00 0.00 0.00 38 1018.2
20260503214804 80 11 1.0 9.0 0.00 0.00 0.00 37 1018.3
20260503214704 80 21 1.0 12.0 0.00 0.00 0.00 37 1018.3
20260503214604 81 20 1.0 12.0 0.00 0.00 0.00 38 1018.3
20260503214504 81 19 1.0 12.0 0.00 0.00 0.00 37 1018.4
20260503214404 81 16 2.0 12.0 0.00 0.00 0.00 36 1018.4
20260503214304 81 10 2.0 12.0 0.00 0.00 0.00 36 1018.4
20260503214204 81 9 3.0 12.0 0.00 0.00 0.00 36 1018.5
20260503214104 81 9 3.0 12.0 0.00 0.00 0.00 36 1018.6
20260503214004 81 10 2.0 12.0 0.00 0.00 0.00 37 1018.6
20260503213904 81 15 2.0 12.0 0.00 0.00 0.00 37 1018.6
20260503213804 81 9 2.0 12.0 0.00 0.00 0.00 37 1018.7
20260503213704 81 360 2.0 10.0 0.00 0.00 0.00 37 1018.6
20260503213604 81 360 2.0 10.0 0.00 0.00 0.00 37 1018.7
20260503213504 81 360 1.0 10.0 0.00 0.00 0.00 36 1018.7
20260503213404 81 353 1.0 10.0 0.00 0.00 0.00 36 1018.7
20260503213304 81 352 0.0 10.0 0.00 0.00 0.00 37 1018.7
20260503213204 81 356 0.0 10.0 0.00 0.00 0.00 38 1018.7
20260503213104 80 348 0.0 10.0 0.00 0.00 0.00 37 1018.8
20260503213004 80 2 0.0 4.0 0.00 0.00 0.00 37 1018.8
20260503212904 80 1 0.0 4.0 0.00 0.00 0.00 37 1018.7
20260503212804 80 336 0.0 4.0 0.00 0.00 0.00 38 1018.7
20260503212704 80 303 1.0 13.0 0.00 0.00 0.00 36 1018.7
20260503212604 80 308 1.0 13.0 0.00 0.00 0.00 36 1018.6
20260503212504 80 308 1.0 13.0 0.00 0.00 0.00 36 1018.7
20260503212404 80 311 1.0 13.0 0.00 0.00 0.00 35 1018.6
20260503212325 80 314 1.0 13.0 0.00 0.00 0.00 35 1018.7
20260503212204 80 317 1.0 13.0 0.00 0.00 0.00 35 1018.7
20260503212104 80 317 1.0 13.0 0.00 0.00 0.00 34 1018.7
20260503212004 80 320 1.0 13.0 0.00 0.00 0.00 35 1018.7
20260503211904 80 328 2.0 13.0 0.00 0.00 0.00 35 1018.8
20260503211804 80 334 2.0 13.0 0.00 0.00 0.00 34 1018.8
20260503211704 81 8 1.0 8.0 0.00 0.00 0.00 35 1018.9
20260503211625 81 39 1.0 6.0 0.00 0.00 0.00 34 1018.9
20260503211525 81 37 1.0 6.0 0.00 0.00 0.00 34 1019.0
20260503211404 81 32 1.0 6.0 0.00 0.00 0.00 33 1019.1
20260503211304 81 30 0.0 6.0 0.00 0.00 0.00 33 1019.1
20260503211204 81 28 0.0 6.0 0.00 0.00 0.00 33 1019.1
20260503211104 81 29 0.0 6.0 0.00 0.00 0.00 36 1019.2
20260503211004 81 35 0.0 5.0 0.00 0.00 0.00 35 1019.1
20260503210904 81 358 0.0 5.0 0.00 0.00 0.00 35 1019.1
20260503210804 81 334 0.0 5.0 0.00 0.00 0.00 36 1019.1
20260503210704 81 331 0.0 5.0 0.00 0.00 0.00 36 1019.2
20260503210604 81 342 1.0 8.0 0.00 0.00 0.00 37 1019.1
20260503210525 81 328 1.0 14.0 0.00 0.00 0.00 37 1019.2
20260503210404 80 321 1.0 14.0 0.00 0.00 0.00 36 1019.2
20260503210325 80 321 1.0 14.0 0.00 0.00 0.00 35 1019.2
20260503210204 80 321 1.0 14.0 0.00 0.00 0.00 35 1019.2
20260503210104 80 321 1.0 14.0 0.00 0.00 0.00 35 1019.2
20260503210005 80 322 1.0 14.0 0.00 0.00 0.00 34 1019.3
20260503205904 80 321 1.0 14.0 0.00 0.00 0.00 34 1019.3
20260503205804 80 320 1.0 14.0 0.00 0.00 0.00 34 1019.3
20260503205704 80 319 1.0 14.0 0.00 0.00 0.00 35 1019.2
20260503205604 80 310 1.0 14.0 0.00 0.00 0.00 35 1019.2
20260503205504 80 293 0.0 7.0 0.00 0.00 0.00 36 1019.2
20260503205404 80 304 0.0 7.0 0.00 0.00 0.00 37 1019.2
20260503205325 80 304 0.0 7.0 0.00 0.00 0.00 36 1019.2
20260503205204 80 304 0.0 7.0 0.00 0.00 0.00 35 1019.2
20260503205104 80 308 0.0 7.0 0.00 0.00 0.00 35 1019.2
20260503205004 80 304 0.0 7.0 0.00 0.00 0.00 36 1019.2
20260503204904 80 313 0.0 7.0 0.00 0.00 0.00 35 1019.2
20260503204804 80 322 0.0 7.0 0.00 0.00 0.00 34 1019.3
20260503204704 80 323 0.0 7.0 0.00 0.00 0.00 35 1019.4
20260503204604 80 331 1.0 7.0 0.00 0.00 0.00 35 1019.4
20260503204504 80 326 1.0 13.0 0.00 0.00 0.00 34 1019.4
20260503204404 80 332 2.0 13.0 0.00 0.00 0.00 34 1019.4
20260503204304 80 332 2.0 13.0 0.00 0.00 0.00 33 1019.4
20260503204204 80 332 2.0 13.0 0.00 0.00 0.00 33 1019.5
20260503204104 80 333 2.0 13.0 0.00 0.00 0.00 34 1019.5
20260503204004 80 334 2.0 13.0 0.00 0.00 0.00 34 1019.5
20260503203904 80 334 2.0 13.0 0.00 0.00 0.00 34 1019.6
20260503203804 80 334 1.0 13.0 0.00 0.00 0.00 34 1019.5
20260503203704 80 334 1.0 13.0 0.00 0.00 0.00 33 1019.5
20260503203604 80 339 1.0 13.0 0.00 0.00 0.00 34 1019.5
20260503203504 81 349 1.0 12.0 0.00 0.00 0.00 35 1019.6
20260503203425 81 20 1.0 10.0 0.00 0.00 0.00 36 1019.6
20260503203304 81 17 1.0 10.0 0.00 0.00 0.00 35 1019.6
20260503203204 81 17 1.0 10.0 0.00 0.00 0.00 36 1019.7
20260503203125 81 30 1.0 10.0 0.00 0.00 0.00 36 1019.7
20260503203025 81 39 1.0 10.0 0.00 0.00 0.00 36 1019.7
20260503202904 80 41 1.0 10.0 0.00 0.00 0.00 35 1019.8
20260503202804 81 37 1.0 10.0 0.00 0.00 0.00 35 1019.9
20260503202704 81 33 1.0 10.0 0.00 0.00 0.00 36 1019.9
20260503202604 81 28 1.0 10.0 0.00 0.00 0.00 36 1020.0
20260503202504 80 27 0.0 10.0 0.00 0.00 0.00 35 1019.9
20260503202404 80 20 0.0 7.0 0.00 0.00 0.00 34 1019.9
20260503202304 80 359 1.0 11.0 0.00 0.00 0.00 34 1019.9
20260503202225 80 352 1.0 12.0 0.00 0.00 0.00 35 1019.9
20260503202104 80 335 1.0 12.0 0.00 0.00 0.00 34 1019.9
20260503202025 80 329 1.0 12.0 0.00 0.00 0.00 34 1020.0
20260503201925 80 327 1.0 12.0 0.00 0.00 0.00 34 1020.0
20260503201804 80 330 1.0 12.0 0.00 0.00 0.00 35 1019.9
20260503201704 80 330 1.0 12.0 0.00 0.00 0.00 35 1020.0
20260503201604 80 330 1.0 12.0 0.00 0.00 0.00 35 1019.9
20260503201504 80 330 1.0 12.0 0.00 0.00 0.00 34 1019.9
20260503201404 80 330 1.0 12.0 0.00 0.00 0.00 35 1020.0
20260503201304 80 329 1.0 12.0 0.00 0.00 0.00 35 1020.0
20260503201204 80 323 1.0 9.0 0.00 0.00 0.00 35 1020.0
20260503201104 80 355 1.0 9.0 0.00 0.00 0.00 35 1020.0
20260503201004 80 14 1.0 9.0 0.00 0.00 0.00 36 1020.0
20260503200904 80 17 1.0 11.0 0.00 0.00 0.00 36 1020.1
20260503200825 80 21 1.0 11.0 0.00 0.00 0.00 35 1020.1
20260503200725 80 22 1.0 11.0 0.00 0.00 0.00 36 1020.1
20260503200604 80 24 1.0 11.0 0.00 0.00 0.00 36 1020.2
20260503200504 80 29 2.0 11.0 0.00 0.00 0.00 38 1020.1
20260503200404 80 35 2.0 11.0 0.00 0.00 0.00 40 1020.1
20260503200304 80 35 2.0 11.0 0.00 0.00 0.00 41 1020.1
20260503200225 80 35 2.0 11.0 0.00 0.00 0.00 41 1020.1
20260503200104 80 6 2.0 11.0 0.00 0.00 0.00 39 1020.2
20260503200004 80 359 2.0 11.0 0.00 0.00 0.00 39 1020.2
20260503195904 80 12 2.0 12.0 0.00 0.00 0.00 39 1020.2
20260503195805 80 14 2.0 13.0 0.00 0.00 0.00 40 1020.3
20260503195704 80 13 2.0 13.0 0.00 0.00 0.00 40 1020.3
20260503195604 80 13 2.0 13.0 0.00 0.00 0.00 40 1020.3